Flag for U.S.A. Weather past 2 weeks in Cleveland, Ohio, U.S.A.

37 °F

Passing clouds.

Feels Like: 32 °F
Forecast: 36 / 55 °F
Wind: 7 mph from Southeast

Location: Cleveland-Hopkins International Airport

Current Time: Nov 25, 2015 at 1:50:18 AM

Latest Report: Nov 25, 2015 at 12:51 AM

Visibility: 10 mi

Pressure: 30.47 "Hg

Humidity: 65%

Dew point: 26 °F

Location of ClevelandLocation

Historic Weather in Cleveland — Graph


Cleveland temperature yesterday

Maximum temperature yesterday: 46 °F (at 1:51 PM)
Minimum temperature yesterday: 30 °F (at 6:51 AM)
Average temperature yesterday: 37 °F

Past Weeks' High & Low Weather Summary

High70 °F (Nov 18, 4:51 PM)97% (Nov 10, 7:51 AM)30.47 "Hg (Nov 10, 7:51 AM)
Low22 °F (Nov 23, 1:51 AM)24% (Nov 20, 12:51 PM)29.47 "Hg (Nov 12, 8:51 AM)
Average46 °F60%30.10 "Hg
* Reported Nov 9 11:51 PM — Nov 24 11:51 PM, Cleveland, Weather by CustomWeather, © 2015

Note: Actual official high and low records may vary slightly from our data, if they occured in-between our weather recording intervals... More about our weather records


Cleveland weather history for previous 24 hours

Time TempWeatherWind HumidityBarometerVisibility
11:51 PM
Tue, Nov 24
36 °FPassing clouds.6 mph67%30.47 "Hg10 mi
10:51 PM34 °FPassing clouds.5 mph67%30.46 "Hg10 mi
9:51 PM36 °FPassing clouds.5 mph59%30.46 "Hg10 mi
8:51 PM34 °FPassing clouds.7 mph61%30.46 "Hg10 mi
7:51 PM37 °FPassing clouds.6 mph54%30.45 "Hg10 mi
6:51 PM39 °FPassing clouds.5 mph48%30.45 "Hg10 mi
5:51 PM40 °FPassing clouds.6 mph47%30.43 "Hg10 mi
4:51 PM44 °FScattered clouds.3 mph40%30.42 "Hg10 mi
3:51 PM45 °FScattered clouds.No wind42%30.41 "Hg10 mi
2:51 PM46 °FScattered clouds.5 mph40%30.40 "Hg10 mi
1:51 PM46 °FPartly sunny.No wind46%30.40 "Hg10 mi
12:51 PM45 °FScattered clouds.No wind51%30.40 "Hg10 mi
11:51 AM44 °FScattered clouds.3 mph55%30.41 "Hg10 mi
10:51 AM40 °FScattered clouds.6 mph73%30.41 "Hg10 mi
9:51 AM38 °FScattered clouds.6 mph76%30.39 "Hg10 mi
8:51 AM34 °FPartly sunny.6 mph82%30.37 "Hg10 mi
7:51 AM31 °FScattered clouds.7 mph85%30.36 "Hg10 mi
6:51 AM30 °FPassing clouds.5 mph85%30.32 "Hg10 mi
5:51 AM32 °FPassing clouds.6 mph82%30.30 "Hg10 mi
4:51 AM33 °FOvercast.5 mph78%30.27 "Hg10 mi
4:03 AM33 °FMostly cloudy.7 mph78%30.23 "Hg10 mi
3:51 AM33 °FMostly cloudy.6 mph78%30.25 "Hg10 mi
2:51 AM33 °FPartly cloudy.8 mph75%30.23 "Hg10 mi
1:51 AM33 °FPassing clouds.8 mph75%30.21 "Hg10 mi
Weather by CustomWeather, © 2015

See weather overviewHow to use our weather pages